Network for Lightning and Thunderstorms in Real Time - Real time lightning map
Regions/Countries: current only
List of Stations for "-" sorted ascending by Country
(Country = Country in that the station is located (assigned by the user))
StationCityCommentCountryRegionsStatusLast signalTotalValidInvolvedUsedClosestFarthest
2896Kembla GrangeAustralia / New South WalesOceania 1Running2022-01-26 05:114772473520778 km2476 km
966Darwin - Alawa200mm ferrites to test, was 30...Australia / Northern TerritoryOceania 1Running2022-01-26 05:116597327686232 km4132 km
2281Darwin - AnulaAustralia / Northern TerritoryOceania 1Running2022-01-26 05:11127165969312135230 km3873 km
886Moffat Beach, Sunshine CoastAustralia / QueenslandEurope 1Running2022-01-26 05:101016696000 km0 km
886Moffat Beach, Sunshine CoastAustralia / QueenslandOceania 1Running2022-01-26 05:111014695330124380 km3336 km
886Moffat Beach, Sunshine CoastAustralia / QueenslandAsia 1Running2022-01-26 05:121013695752276 km5463 km
886Moffat Beach, Sunshine CoastAustralia / QueenslandSouth America 1Running2022-01-26 05:121014696220 km11446 km
886Moffat Beach, Sunshine CoastAustralia / QueenslandAfrica 1Running2022-01-26 05:081021700220 km9685 km
886Moffat Beach, Sunshine CoastAustralia / QueenslandJapan 1Running2022-01-26 05:091019697882696 km4922 km
886Moffat Beach, Sunshine CoastAustralia / QueenslandEurope 2Running2022-01-26 05:1210126945012966 km19862 km
886Moffat Beach, Sunshine CoastAustralia / QueenslandEurope 3Running2022-01-26 05:1210126945012966 km19862 km
1263Dutton Park, Brisbane300mm loops (x 44 turns)Australia / QueenslandOceania 1Running2022-01-26 05:114693263224151291 km3226 km
1363Brisbane Nth 2System RED H Field only 2m loo...Australia / QueenslandOceania 1Interference2022-01-26 00:27103111721 km4878 km
1399Brisbane Nth 1System RED H Field only 2m loo...Australia / QueenslandOceania 1Running2022-01-26 05:101621568051298 km2082 km
1527CranbrookAustralia / QueenslandOceania 1Running2022-01-26 05:11702156281718937303 km4501 km
1593CabooltureHome sweet homeAustralia / QueenslandOceania 1Running2022-01-26 05:1111160106701166451326 km4104 km
1631CarinaCu pipe loop & Toroid CouplerAustralia / QueenslandOceania 1Running2022-01-26 05:11416040371901878295 km4128 km
1695BundabergSystem Blue. 38cm loopAustralia / QueenslandOceania 1Running2022-01-26 05:104747209634 km1921 km
2332Chapel Hill,Using mag field only - 3 ortho...Australia / QueenslandEurope 1Running2022-01-26 05:112685820500000 km0 km
2332Chapel Hill,Using mag field only - 3 ortho...Australia / QueenslandOceania 1Running2022-01-26 05:11269292054955301779286 km5606 km
2332Chapel Hill,Using mag field only - 3 ortho...Australia / QueenslandAsia 1Running2022-01-26 05:122682220462543491 km4924 km
2332Chapel Hill,Using mag field only - 3 ortho...Australia / QueenslandSouth America 1Running2022-01-26 05:122686020493110 km11791 km
2332Chapel Hill,Using mag field only - 3 ortho...Australia / QueenslandAfrica 1Running2022-01-26 05:092694120546210 km9629 km
2332Chapel Hill,Using mag field only - 3 ortho...Australia / QueenslandJapan 1Running2022-01-26 05:092697920573773865 km5617 km
2332Chapel Hill,Using mag field only - 3 ortho...Australia / QueenslandEurope 2Running2022-01-26 05:122677020422717221 km15987 km
2332Chapel Hill,Using mag field only - 3 ortho...Australia / QueenslandEurope 3Running2022-01-26 05:122677120423817221 km15987 km
2359Moorooka, BrisbaneSystem Blue, E and 3 orthogon...Australia / QueenslandOceania 1Running2022-01-26 05:1159103540213149299 km3341 km
2359Moorooka, BrisbaneSystem Blue, E and 3 orthogon...Australia / QueenslandAsia 1Running2022-01-26 05:125923355512122903 km5827 km
2451Wavell HeightsAustralia / QueenslandOceania 1Running2022-01-26 05:103303102042313 km1834 km
2451Wavell HeightsAustralia / QueenslandAsia 1Running2022-01-26 05:10330310201062228 km4650 km
2662Excelsior Park, Morayfield, Br...3x200mmx15mm Ferrite Rod + 150...Australia / QueenslandOceania 1Running2022-01-26 05:119413777429321011321 km5581 km
2662Excelsior Park, Morayfield, Br...3x200mmx15mm Ferrite Rod + 150...Australia / QueenslandAsia 1Running2022-01-26 05:1293577735773501 km4899 km
1015Lyrup, South Australia300mm ferrite Hfield/800mm Efi...Australia / South AustraliaOceania 1Interference2022-01-26 05:11184701391461450640 km1507 km
1016Paringa, South Australia300mm ferrite Hfield/200mm Efi...Australia / South AustraliaOceania 1Running2022-01-26 05:113237120464849046 km1469 km
1248RidgehavenRed E200mm onlyAustralia / South AustraliaOceania 1Running2022-01-26 05:11229621764220791427102 km4000 km
1694Salisbury, South Australia3 x 200mm Ferrite + 300mm E. F...Australia / South AustraliaOceania 1Running2022-01-26 05:11119087965568445107 km3443 km
2105Port LincolnAustralia / South AustraliaOceania 1Running2022-01-26 04:4032227 km87 km
2175IronbankAustralia / South AustraliaOceania 1Running2022-01-26 05:11201571481317061375110 km5273 km
2349Mil-LelTesting H FieldAustralia / South AustraliaOceania 1Running2022-01-26 05:1144159382904255353325 km3591 km
2353WhyallaMostly relying on e field ante...Australia / South AustraliaEurope 1Running2022-01-26 05:111526237110 km8716 km
2353WhyallaMostly relying on e field ante...Australia / South AustraliaOceania 1Running2022-01-26 05:11152623710034202 km1471 km
2353WhyallaMostly relying on e field ante...Australia / South AustraliaAsia 1Running2022-01-26 05:1215282381073370 km4377 km
2353WhyallaMostly relying on e field ante...Australia / South AustraliaSouth America 1Running2022-01-26 05:121528238000 km0 km
2353WhyallaMostly relying on e field ante...Australia / South AustraliaAfrica 1Running2022-01-26 05:091593236110 km8888 km
2353WhyallaMostly relying on e field ante...Australia / South AustraliaJapan 1Running2022-01-26 05:091593236423438 km4377 km
2438Athelstone (IADELA729)2 x 200mm Ferrite, 200mm E-fie...Australia / South AustraliaOceania 1Running2022-01-26 05:1132674216524959378494 km5259 km
2667Para Hills WestBack To Testing StageAustralia / South AustraliaOceania 1Running2021-10-31 21:5583823673522055 km2543 km
2953StrathalbynSHR/Hallett/CFS SBYN-02Australia / South AustraliaOceania 1Interference2022-01-26 05:1120786166651272958111 km5306 km
972KingstonTrialing AntennasAustralia / TasmaniaOceania 1Running2022-01-26 05:11395043204259864981467 km5151 km
1833KingstonLoops N-S and E-WAustralia / TasmaniaOceania 1Running2022-01-26 05:11248941548340382674470 km4404 km
2048StowportBlue 19.4, 2x 200mm ferrite, 1...Australia / TasmaniaOceania 1Running2022-01-26 05:11172271664937992621323 km4198 km
2050Sandy BayU of Tas Environmental Change ...Australia / TasmaniaOceania 1Interference2022-01-26 05:07284722700225791884484 km5025 km
2064OrfordAustralia / TasmaniaOceania 1Running2022-01-26 05:11239481940638763254497 km5122 km
2121CradocLoop AntennaAustralia / TasmaniaOceania 1Running2022-01-26 05:11164261123155434367451 km4487 km
849Corryong, VicAustralia / VictoriaOceania 1Running2022-01-07 13:3383351748857 km669 km
919AcheronOnlineAustralia / VictoriaOceania 1Running2022-01-26 05:1129172180255403475656 km4705 km
1323SilvanAntenna approx 4m above groundAustralia / VictoriaOceania 1Running2022-01-26 05:115784245758246989 km3036 km
1613PortarlingtonSystem blue. 100mm E-fieldAustralia / VictoriaOceania 1Running2022-01-26 05:11223241900561605629150 km3940 km
1679BallaratE-field built-in, and now grou...Australia / VictoriaOceania 1Running2022-01-17 08:106444754 km3077 km
1890StawellAustralia / VictoriaOceania 1Interference2022-01-26 05:0822932189701179103116 km3257 km
2066MordiallocAustralia / VictoriaOceania 1Running2022-01-26 05:11153851019848574560124 km3998 km
2081DromanaNew setup, indoors for testingAustralia / VictoriaOceania 1Interference2022-01-26 05:117990536221791970153 km3376 km
2090EnsayAustralia / VictoriaOceania 1Running2022-01-26 05:11577449802053 km2593 km
2098Neerim EastAustralia / VictoriaOceania 1Running2022-01-26 05:1117254132525953508056 km3872 km
2118BlackburnSystem Blue 19.4, H two 20cm F...Australia / VictoriaOceania 1Running2022-01-26 05:11311682226332332712112 km4752 km
2120Keilor ParkSystem Blue. 2x 20cm ferrites....Australia / VictoriaOceania 1Running2022-01-26 04:57515874158259154841133 km4731 km
2139Croydon SouthV9.2 Blue, clean site, quiet P...Australia / VictoriaOceania 1Running2022-01-26 05:09449823226157764785101 km4753 km
2167HeathmontAustralia / VictoriaOceania 1Running2022-01-26 05:114320296819651778103 km3278 km
2167HeathmontAustralia / VictoriaSouth America 1Running2022-01-26 05:1243312977110 km8366 km
2167HeathmontAustralia / VictoriaAfrica 1Running2022-01-26 05:0942712936110 km8272 km
2391HeathcoteV9.2 Blue, Leon Mow Radio Obse...Australia / VictoriaOceania 1Running2022-01-26 05:11205791599299985263 km5753 km
2553St Andrews BeachBlue - Ferrite RodsAustralia / VictoriaOceania 1Running2022-01-26 05:112882269022591785167 km3149 km
844RockinghamRebirth (temporary)Australia / Western AustraliaOceania 1Running2022-01-26 05:118333200313269941304 km4315 km
973Willetton, PerthAustralia / Western AustraliaOceania 1Running2022-01-26 05:1131287178912649721295 km4639 km
2418Morley, PerthAustralia / Western AustraliaOceania 1Running2022-01-26 05:1188317166243616271297 km5409 km
247Wiener NeustadtAustriaEurope 1Offline2021-12-28 05:29231231251486 km3815 km
247Wiener NeustadtAustriaSouth America 1Offline2021-12-28 05:29231231505472 km7636 km
247Wiener NeustadtAustriaAfrica 1Offline2021-12-28 05:29231231502903 km3369 km
255DoblAustriaEurope 1Offline2022-01-26 05:021212000 km0 km
265DesselbrunnAustriaEurope 1Offline2022-01-25 20:355550785 km1590 km
297Feistritz / DrauAustriaEurope 1Offline2022-01-26 05:0838381011722 km2267 km
324GrazAustriaEurope 1Offline2022-01-26 04:393330654 km1419 km
468StockerauAustriaEurope 1Offline2022-01-26 05:0720201101549 km2217 km
708Ybbs an der DonauAustriaEurope 1Running2021-12-18 12:452613193536716935 km4452 km
708Ybbs an der DonauAustriaEurope 2Running2021-12-18 12:452614193645220936 km4009 km
708Ybbs an der DonauAustriaEurope 3Running2021-12-18 12:452614193644119934 km4009 km
730Steinbrunn SeeAustriaEurope 1Running2022-01-26 05:10628338723067 km2107 km
730Steinbrunn SeeAustriaEurope 2Running2022-01-26 05:12635938314043 km2540 km
730Steinbrunn SeeAustriaEurope 3Running2022-01-26 05:12635938315043 km2540 km
754DornbirnSystem RED - OE9PGVAustriaEurope 1Running2022-01-26 04:283202171502153 km5119 km
754DornbirnSystem RED - OE9PGVAustriaEurope 2Running2022-01-26 04:283202172201874 km8321 km
754DornbirnSystem RED - OE9PGVAustriaEurope 3Running2022-01-26 04:283202172201874 km8321 km
759Hof bei SalzburgAustriaEurope 1Running2022-01-26 05:084037402064 km2432 km
759Hof bei SalzburgAustriaEurope 2Running2022-01-26 05:0840371601702 km2433 km
759Hof bei SalzburgAustriaEurope 3Running2022-01-26 05:0840371701702 km2433 km
824SieghartskirchenOE3MNSAustriaEurope 1Running2022-01-26 05:1042401201556 km2290 km
824SieghartskirchenOE3MNSAustriaAfrica 1Running2022-01-26 04:574745820 km4404 km
824SieghartskirchenOE3MNSAustriaEurope 2Running2022-01-26 05:104240601562 km2290 km
824SieghartskirchenOE3MNSAustriaEurope 3Running2022-01-26 05:104240601562 km2290 km
884StroheimAustriaEurope 1Running2022-01-26 04:4913111101478 km2346 km
Select your menu language
češtinadanskdeutschελληνικάenglishespañolsuomeksifrançaismagyaritaliano日本語latviskinederlandsenorskмакедонскиpolskiрусскийсрпскиsvenskatürkукраїнський
If your language is not supported and if you want to adapt the menu language, then write an email to info ☺ blitzortung.org.